CW3556 Weather Reports


Display with metric or nautical units.
time (UTC)temp
F
wind
direction
speed
MPH
gust
MPH
rain 1hr
in
rain 24hr
in
rain mn
in
humidity
%
barometer
mb
20260504130503 65 193 5.0 9.0 0.00 0.00 0.00 67 1006.4
20260504110503 59 231 2.0 4.0 0.00 0.00 0.00 74 1006.5
20260504100503 62 209 1.0 5.0 0.00 0.00 0.00 67 1006.8
20260504082003 57 276 1.0 3.0 0.00 0.00 0.00 78 1006.7
20260504081503 57 277 1.0 3.0 0.00 0.00 0.00 77 1006.7
20260504081003 58 277 1.0 3.0 0.00 0.00 0.00 77 1006.8
20260504080503 58 0 0.0 2.0 0.00 0.00 0.00 76 1006.9
20260504050503 63 224 1.0 3.0 0.00 0.00 0.00 68 1006.9
20260504050003 63 224 1.0 3.0 0.00 0.00 0.00 68 1006.8
20260504045503 63 224 1.0 3.0 0.00 0.00 0.00 68 1006.8
20260504045003 63 224 1.0 3.0 0.00 0.00 0.00 67 1006.7
20260504044503 64 224 1.0 9.0 0.00 0.00 0.00 67 1006.7
20260504044003 64 224 2.0 9.0 0.00 0.00 0.00 67 1006.7
20260504043524 64 229 3.0 9.0 0.00 0.00 0.00 67 1006.8
20260504043003 64 254 3.0 9.0 0.00 0.00 0.00 67 1006.8
20260504042503 64 279 3.0 4.0 0.00 0.00 0.00 68 1006.9
20260504042003 65 296 2.0 6.0 0.00 0.00 0.00 68 1007.1
20260504041503 65 320 2.0 6.0 0.00 0.00 0.00 67 1007.3
20260504041024 66 328 2.0 9.0 0.00 0.00 0.00 66 1007.5
20260504040524 66 292 3.0 9.0 0.00 0.00 0.00 65 1007.6
20260504040003 67 282 3.0 9.0 0.00 0.00 0.00 64 1007.6
20260504035503 67 287 2.0 9.0 0.00 0.00 0.00 63 1007.9
20260504035024 68 228 1.0 5.0 0.00 0.00 0.00 61 1007.6
20260504034503 68 224 2.0 5.0 0.00 0.00 0.00 61 1007.7
20260504034003 68 210 3.0 10.0 0.00 0.00 0.00 60 1007.6
20260504033503 69 202 4.0 10.0 0.00 0.00 0.00 59 1007.5
20260504033024 69 204 4.0 9.0 0.00 0.00 0.00 58 1007.1
20260504032503 69 204 4.0 9.0 0.00 0.00 0.00 57 1007.6
20260504032003 68 202 4.0 9.0 0.00 0.00 0.00 57 1007.5
20260504031503 68 197 4.0 8.0 0.00 0.00 0.00 58 1007.6
20260504031024 68 196 4.0 8.0 0.00 0.00 0.00 58 1007.6
20260504030503 67 202 3.0 6.0 0.00 0.00 0.00 58 1007.7
20260504030003 67 205 3.0 6.0 0.00 0.00 0.00 59 1007.8
20260504025503 67 205 2.0 4.0 0.00 0.00 0.00 59 1007.7
20260504025003 67 206 2.0 5.0 0.00 0.00 0.00 60 1007.6
20260504024503 67 208 2.0 5.0 0.00 0.00 0.00 60 1007.6
20260504024003 67 220 3.0 6.0 0.00 0.00 0.00 60 1007.6
20260504023503 67 248 3.0 6.0 0.00 0.00 0.00 61 1007.6
20260504023024 67 273 3.0 4.0 0.00 0.00 0.00 62 1007.6
20260504022503 67 285 2.0 4.0 0.00 0.00 0.00 63 1007.6
20260504022003 67 294 1.0 2.0 0.00 0.00 0.00 62 1007.6
20260504021503 68 0 0.0 2.0 0.00 0.00 0.00 61 1007.6
20260504021003 68 0 0.0 1.0 0.00 0.00 0.00 61 1007.6
20260504020524 68 0 0.0 0.0 0.00 0.00 0.00 60 1007.5
20260504020003 69 0 0.0 1.0 0.00 0.00 0.00 59 1007.5
20260504015503 69 0 0.0 1.0 0.00 0.00 0.00 59 1007.5
20260504015024 69 0 0.0 1.0 0.00 0.00 0.00 59 1007.5
20260504014503 70 0 0.0 1.0 0.00 0.00 0.00 57 1007.5
20260504014003 70 0 0.0 1.0 0.00 0.00 0.00 55 1007.5
20260504013503 71 0 0.0 1.0 0.00 0.00 0.00 54 1007.5
20260504013003 71 0 0.0 1.0 0.00 0.00 0.00 53 1007.5
20260504012503 71 0 0.0 1.0 0.00 0.00 0.00 52 1007.5
20260504012003 72 0 0.0 2.0 0.00 0.00 0.00 51 1007.5
20260504011503 72 0 0.0 2.0 0.00 0.00 0.00 51 1007.4
20260504011003 73 0 0.0 2.0 0.00 0.00 0.00 50 1007.3
20260504010503 73 294 1.0 4.0 0.00 0.00 0.00 49 1007.3
20260504010003 73 292 2.0 8.0 0.00 0.00 0.00 49 1007.2
20260504005503 74 269 2.0 8.0 0.00 0.00 0.00 48 1007.3
20260504005024 74 229 1.0 4.0 0.00 0.00 0.00 48 1007.1
20260504004503 74 227 1.0 4.0 0.00 0.00 0.00 47 1007.0
20260504004024 74 226 2.0 4.0 0.00 0.00 0.00 46 1007.0
20260504003503 74 229 2.0 6.0 0.00 0.00 0.00 46 1007.0
20260504003024 75 233 2.0 6.0 0.00 0.00 0.00 46 1007.0
20260504002503 75 238 1.0 4.0 0.00 0.00 0.00 45 1007.0
20260504002003 75 240 2.0 5.0 0.00 0.00 0.00 45 1007.1
20260504001503 75 245 2.0 5.0 0.00 0.00 0.00 44 1007.0
20260504001003 76 251 2.0 7.0 0.00 0.00 0.00 44 1007.0
20260504000503 76 256 2.0 7.0 0.00 0.00 0.00 44 1007.1
20260504000003 76 256 3.0 8.0 0.00 0.00 0.00 43 1007.1
20260503235503 76 247 4.0 10.0 0.00 0.00 0.00 42 1007.1
20260503235003 76 240 4.0 10.0 0.00 0.00 0.00 42 1007.2
20260503234503 76 246 5.0 16.0 0.00 0.00 0.00 42 1007.2
20260503234003 76 250 7.0 16.0 0.00 0.00 0.00 41 1007.2
20260503233503 76 253 7.0 15.0 0.00 0.00 0.00 41 1007.2
20260503233003 77 259 6.0 12.0 0.00 0.00 0.00 41 1007.3
20260503232524 77 254 6.0 14.0 0.00 0.00 0.00 41 1007.3
20260503232024 77 249 7.0 15.0 0.00 0.00 0.00 41 1007.2
20260503231503 77 247 7.0 15.0 0.00 0.00 0.00 41 1007.3
20260503231003 77 244 6.0 15.0 0.00 0.00 0.00 40 1007.4
20260503230503 77 233 7.0 17.0 0.00 0.00 0.00 40 1007.4
20260503230003 77 228 7.0 17.0 0.00 0.00 0.00 39 1007.4
20260503225503 77 232 8.0 19.0 0.00 0.00 0.00 39 1007.5
20260503225003 77 225 9.0 19.0 0.00 0.00 0.00 40 1007.5
20260503224524 77 227 8.0 19.0 0.00 0.00 0.00 39 1007.5
20260503224003 78 241 7.0 19.0 0.00 0.00 0.00 39 1007.6
20260503223524 78 241 6.0 17.0 0.00 0.00 0.00 40 1007.6
20260503223003 78 237 6.0 15.0 0.00 0.00 0.00 39 1007.6
20260503222503 78 241 8.0 16.0 0.00 0.00 0.00 39 1007.6
20260503222003 77 245 9.0 18.0 0.00 0.00 0.00 39 1007.7
20260503221503 77 240 8.0 18.0 0.00 0.00 0.00 38 1007.7
20260503221003 77 233 7.0 16.0 0.00 0.00 0.00 38 1007.8
20260503220503 77 237 8.0 21.0 0.00 0.00 0.00 38 1007.8
20260503220003 77 235 9.0 21.0 0.00 0.00 0.00 38 1007.9
20260503215503 77 233 9.0 17.0 0.00 0.00 0.00 38 1008.1
20260503215003 77 240 8.0 16.0 0.00 0.00 0.00 38 1008.1
20260503214503 77 245 8.0 16.0 0.00 0.00 0.00 38 1008.1
20260503214003 77 241 8.0 16.0 0.00 0.00 0.00 38 1008.2
20260503213503 77 234 7.0 19.0 0.00 0.00 0.00 39 1008.2
20260503213024 77 238 9.0 20.0 0.00 0.00 0.00 40 1008.2
20260503212524 77 234 8.0 20.0 0.00 0.00 0.00 38 1008.3
20260503212003 77 225 7.0 18.0 0.00 0.00 0.00 39 1008.4
20260503211503 77 237 8.0 18.0 0.00 0.00 0.00 40 1008.4
20260503211003 77 231 7.0 16.0 0.00 0.00 0.00 39 1008.5
20260503210503 77 221 6.0 16.0 0.00 0.00 0.00 39 1008.6
20260503210003 77 219 7.0 19.0 0.00 0.00 0.00 39 1008.7
20260503205503 76 216 7.0 20.0 0.00 0.00 0.00 39 1008.8
20260503205024 76 222 7.0 20.0 0.00 0.00 0.00 38 1008.7
20260503204503 76 224 8.0 19.0 0.00 0.00 0.00 39 1008.8
20260503204003 76 212 9.0 19.0 0.00 0.00 0.00 40 1008.8
20260503203503 76 211 8.0 19.0 0.00 0.00 0.00 39 1008.8
20260503203003 76 221 8.0 17.0 0.00 0.00 0.00 41 1008.9
20260503202524 76 218 8.0 17.0 0.00 0.00 0.00 40 1009.0
20260503202003 75 227 7.0 23.0 0.00 0.00 0.00 39 1009.2
20260503201503 75 231 9.0 23.0 0.00 0.00 0.00 40 1009.2
20260503201003 75 216 8.0 19.0 0.00 0.00 0.00 39 1009.3
20260503200503 74 221 8.0 21.0 0.00 0.00 0.00 42 1009.4
20260503200003 74 224 8.0 21.0 0.00 0.00 0.00 40 1009.6
20260503195503 74 206 8.0 20.0 0.00 0.00 0.00 42 1009.7
20260503195003 74 195 10.0 20.0 0.00 0.00 0.00 41 1009.7
20260503194503 74 200 9.0 20.0 0.00 0.00 0.00 40 1009.9
20260503194003 74 205 8.0 17.0 0.00 0.00 0.00 42 1010.1
20260503193524 73 209 9.0 21.0 0.00 0.00 0.00 41 1010.1
20260503193003 73 223 8.0 21.0 0.00 0.00 0.00 42 1010.2
20260503192524 73 226 9.0 19.0 0.00 0.00 0.00 43 1010.4
20260503192003 72 222 11.0 21.0 0.00 0.00 0.00 43 1010.5
20260503191524 72 220 10.0 21.0 0.00 0.00 0.00 42 1010.7
20260503191003 72 208 10.0 19.0 0.00 0.00 0.00 42 1010.9
20260503190503 72 200 10.0 19.0 0.00 0.00 0.00 44 1010.9
20260503190003 71 204 11.0 23.0 0.00 0.00 0.00 42 1011.0
20260503185503 71 206 11.0 23.0 0.00 0.00 0.00 41 1011.2
20260503185003 71 208 10.0 23.0 0.00 0.00 0.00 41 1011.3
20260503184503 71 210 10.0 20.0 0.00 0.00 0.00 43 1011.5
20260503184003 71 213 9.0 24.0 0.00 0.00 0.00 41 1011.6
20260503183524 71 203 9.0 24.0 0.00 0.00 0.00 45 1011.6
20260503183003 70 197 10.0 23.0 0.00 0.00 0.00 42 1011.8
20260503182503 70 197 9.0 19.0 0.00 0.00 0.00 42 1012.0
20260503182004 70 205 8.0 19.0 0.00 0.00 0.00 43 1011.9
20260503181524 70 203 9.0 20.0 0.00 0.00 0.00 42 1012.0
20260503181003 70 192 9.0 20.0 0.00 0.00 0.00 42 1012.1
20260503180503 70 197 9.0 18.0 0.00 0.00 0.00 45 1012.2
20260503180003 69 202 8.0 19.0 0.00 0.00 0.00 46 1012.3
20260503175524 69 204 9.0 20.0 0.00 0.00 0.00 46 1012.5
20260503175003 69 201 10.0 21.0 0.00 0.00 0.00 45 1012.7
20260503174503 69 199 10.0 21.0 0.00 0.00 0.00 43 1012.9
20260503174024 69 202 8.0 19.0 0.00 0.00 0.00 45 1013.1
20260503173503 68 207 7.0 17.0 0.00 0.00 0.00 47 1013.2
20260503173003 68 207 8.0 17.0 0.00 0.00 0.00 45 1013.5
20260503172503 68 208 7.0 15.0 0.00 0.00 0.00 46 1013.8
20260503172003 67 210 7.0 17.0 0.00 0.00 0.00 46 1014.1
20260503171503 67 205 8.0 18.0 0.00 0.00 0.00 48 1014.3
20260503171003 67 204 8.0 18.0 0.00 0.00 0.00 47 1014.2
20260503170503 67 199 8.0 19.0 0.00 0.00 0.00 48 1014.3
20260503151003 60 204 7.0 12.0 0.00 0.00 0.00 59 1016.1
20260503150503 59 196 7.0 15.0 0.00 0.00 0.00 58 1016.1